Volver al catálogo

STARLINK-30935

ActivoComunicacionesVLEO
NORAD 58455·PAYLOAD·🇺🇸 United States

Lanzado Nov 28, 2023 desde Cape Canaveral Space Force Station

Loading…

Próximos Pases (próximas 24 horas)

TLE

ActualizadoSource: CelesTrak SupGP

Época: Sep 15, 2026, 03:06 UTC

1 58455C 23183U   26258.12965278 -.00090682  00000+0 -32845-2 0  2585
2 58455  43.0017  52.0268 0001355 264.6468  92.1131 15.27624020    14

Sigue STARLINK-30935 en tiempo real con AllMySat

Download on the App Store